Location: Auckland
(36.8670°S, 174.7670°E)
Time: 18:25:08
(UTC+13:00)

ISS - Visible Passes

Search period start: 30 September 2023 00:00
Search period end: 10 October 2023 00:00
Orbit: 414 x 421 km, 51.6° (Epoch: 29 September)

Date Brightness Start Highest point End Pass type
(mag) Time Alt. Az. Time Alt. Az. Time Alt. Az.
03 Oct -0.6 06:18:26 10° S 06:18:52 10° SSE 06:19:17 10° SSE visible
05 Oct -1.0 06:17:13 10° SSW 06:19:36 17° SSE 06:21:58 10° ESE visible
06 Oct -0.8 05:29:22 10° S 05:30:59 13° SSE 05:32:37 10° SE visible
07 Oct -2.1 06:16:36 10° SW 06:19:48 36° SE 06:22:59 10° ENE visible
08 Oct -1.4 05:28:19 10° SSW 05:31:09 23° SSE 05:33:58 10° E visible
09 Oct -0.9 04:40:35 12° S 04:42:22 16° SSE 04:44:38 10° ESE visible
09 Oct -3.8 06:16:02 10° SW 06:19:27 76° NW 06:22:50 10° NE visible
